Wind_Speed
12 13 13 12 12 12 13 12 11 14 12 8 8 10 7 7 12 5 11 9 6 5 6 9 9 9 9 8 7 7 6 6 6 5 5 4 4 5
15 16 17 14 15 14 15 13 14 15 15 14 10 2 7 6 8 8 13 12 11 8 9 11 10 10 9 8 8 8 7 7 6 6 6 6 6 7
16 17 18 20 18 16 17 18 17 16 17 17 14 10 16 16 12 11 12 14 11 12 11 12 12 11 10 9 8 8 8 8 7 7 6 6 5 4
18 20 20 18 22 21 17 20 19 19 18 18 19 17 14 17 15 16 14 12 15 11 12 14 14 13 11 10 10 10 9 8 7 7 6 5 4 4
22 23 24 23 23 21 22 21 22 23 22 21 20 18 17 19 21 20 16 18 20 15 14 16 17 16 14 12 12 11 10 8 8 7 6 5 4 4
24 25 26 27 27 27 27 26 27 24 20 21 22 19 20 21 22 21 22 22 21 17 16 18 20 19 17 16 15 14 12 10 9 7 6 5 6 5
23 24 25 28 29 28 29 27 27 27 25 26 28 25 23 24 22 20 20 21 20 18 18 18 18 23 21 20 19 18 14 11 10 9 8 7 6 6
25 25 25 26 28 31 33 36 36 32 34 31 28 28 27 21 19 22 23 25 22 23 21 19 17 20 24 24 22 19 16 14 13 11 9 8 7 7
30 30 28 26 28 29 31 33 33 35 39 39 38 36 28 22 24 24 27 28 27 24 20 23 22 20 21 23 24 21 18 17 15 13 12 11 9 8
35 35 36 36 35 35 32 30 30 33 32 36 46 45 43 38 30 28 31 29 21 22 19 24 26 27 28 28 27 22 21 19 18 17 16 12 10 8
34 35 35 35 35 36 34 35 40 39 32 31 34 32 37 42 33 29 27 24 27 27 25 27 28 31 34 32 29 26 25 25 26 26 19 15 13 9
33 33 31 33 36 35 34 40 44 40 40 37 36 34 34 29 29 28 28 26 30 28 29 32 29 32 21 20 25 30 29 31 29 23 21 19 13 6
31 30 28 26 32 36 37 38 38 39 34 32 35 31 27 26 26 26 21 19 24 30 29 26 34 27 31 24 29 33 34 30 23 22 18 14 11 8
31 28 27 27 29 28 29 36 38 35 37 32 26 29 31 29 27 28 29 26 27 26 19 13 24 26 29 29 32 35 32 29 27 19 15 16 11 8
24 24 24 27 24 24 24 24 25 34 25 35 27 25 25 28 26 20 18 18 19 17 17 16 14 23 32 36 36 39 35 34 27 22 17 14 11 9
14 16 18 18 18 20 19 17 19 19 27 22 24 24 24 24 17 18 17 15 13 12 13 14 17 22 24 23 27 37 39 29 28 21 16 9 7 5
7 8 8 9 12 12 11 10 8 12 19 20 26 20 20 19 17 16 13 11 11 10 8 8 10 12 12 16 33 40 34 21 23 19 14 11 10 11
5 6 7 9 10 10 6 1 7 10 17 18 21 22 19 16 16 13 10 8 7 11 11 12 13 15 17 22 27 31 24 16 14 18 17 13 10 9
8 10 10 9 8 7 3 2 6 9 9 10 14 18 18 16 13 11 11 12 15 19 19 19 23 31 33 28 27 18 15 13 14 15 14 12 9 10
15 14 12 10 7 6 5 5 6 11 12 13 15 15 15 14 14 14 15 20 27 32 30 24 22 20 20 22 21 19 17 13 12 12 11 9 12 12
20 19 15 13 13 9 8 8 8 10 12 15 17 17 17 17 19 21 23 26 30 30 29 24 18 17 13 14 14 15 19 17 15 14 12 12 11 10
14 17 24 21 16 14 14 16 17 19 20 21 23 21 21 21 26 29 27 26 24 21 18 14 14 12 13 12 12 14 13 18 19 17 14 14 11 8
11 13 18 17 15 17 19 20 20 21 24 22 21 20 22 23 21 18 16 14 13 17 12 12 12 11 8 7 14 10 12 10 9 15 19 19 15 15
Wind_Direction
261 258 262 261 268 264 265 269 270 286 282 245 251 236 220 275 271 279 261 279 269 267 255 236 247 257 267 269 258 253 253 256 257 258 258 258 267 271
255 257 254 260 264 271 255 260 270 280 283 278 285 12 214 207 273 244 254 264 258 261 257 239 240 250 251 254 243 246 247 246 246 251 260 268 273 273
257 254 259 256 255 259 268 264 258 259 261 270 262 284 264 259 250 251 255 259 253 249 258 245 244 250 247 249 243 245 243 241 243 249 257 261 260 258
262 266 258 259 263 260 256 257 258 256 259 263 264 260 266 269 262 249 251 228 264 256 252 245 245 243 246 244 244 243 240 240 246 254 253 246 244 243
259 258 262 265 263 254 253 250 254 254 250 253 254 259 256 245 264 260 243 229 244 265 258 247 241 238 241 239 240 241 240 243 244 238 235 233 230 210
257 261 260 257 258 262 260 253 245 247 252 254 258 261 255 253 249 261 259 253 251 251 253 247 238 235 235 235 236 235 234 234 228 225 218 203 194 185
260 269 272 272 263 260 263 259 250 249 247 250 253 251 248 240 234 244 257 255 251 248 250 251 244 239 235 235 235 232 230 226 218 210 199 190 186 182
261 266 269 268 264 265 265 260 254 252 248 239 249 251 248 251 237 242 246 244 240 243 244 250 247 237 236 232 231 228 221 214 206 196 191 182 168 155
267 267 264 266 265 267 269 270 263 256 253 251 247 244 244 245 244 250 247 253 256 256 241 238 228 228 229 222 227 213 207 203 190 180 164 153 145 139
278 278 276 275 271 263 254 256 258 264 264 255 248 252 252 250 245 250 255 259 253 235 247 226 224 215 217 225 223 208 192 183 175 160 148 136 125 116
279 279 277 274 272 268 263 264 254 252 251 256 260 256 255 251 249 247 248 240 229 230 230 235 227 221 220 225 223 203 184 178 168 155 147 138 132 129
276 277 278 280 281 276 269 260 258 250 249 252 253 254 254 256 249 242 248 254 248 239 233 225 223 217 202 216 210 192 184 179 173 162 154 147 137 121
278 279 278 269 264 267 270 267 261 256 240 246 250 253 253 244 247 239 242 259 262 264 260 249 241 221 226 211 207 200 187 179 178 170 164 153 154 166
289 287 284 285 287 280 273 263 257 255 242 235 239 246 245 243 246 240 246 250 242 246 252 249 230 248 238 221 200 188 182 187 180 178 188 178 179 185
288 292 295 295 289 283 282 276 265 250 245 228 230 246 241 241 245 251 230 219 218 224 232 246 257 245 235 230 199 179 180 184 177 183 188 195 194 212
298 299 292 289 289 291 287 276 265 247 230 223 222 228 227 242 244 219 218 231 233 234 248 252 246 247 243 233 214 184 183 177 179 187 188 191 201 226
327 332 343 326 323 320 307 277 239 213 216 208 215 226 237 243 219 217 220 230 243 246 224 205 203 222 227 222 182 178 169 178 182 185 179 190 206 220
4 14 10 3 354 336 332 310 190 202 194 200 210 223 222 216 211 212 211 188 174 172 164 161 159 159 167 169 167 158 169 171 200 199 174 201 219 230
53 55 49 41 23 17 44 111 159 167 172 197 207 203 194 188 183 164 153 152 154 157 148 148 145 140 142 143 158 165 169 192 176 180 185 207 233 232
44 49 48 50 56 47 53 79 127 156 173 181 177 170 160 150 142 137 141 141 137 128 127 128 129 137 141 152 162 172 164 164 182 191 200 211 221 216
43 55 54 55 62 78 79 87 97 124 128 127 127 127 130 134 127 126 130 129 125 123 121 123 124 127 123 133 144 165 177 188 189 201 211 210 222 223
50 50 56 62 70 78 90 101 109 116 119 124 124 120 121 122 126 125 124 125 126 124 121 110 118 136 159 176 174 175 186 204 203 209 205 203 208 208
52 52 66 73 64 79 91 99 107 115 119 116 119 121 124 125 129 132 138 150 157 137 152 160 164 167 179 144 156 172 190 202 203 224 230 231 236 253
Height
1576 1576 1576 1576 1574 1574 1573 1572 1572 1569 1567 1566 1567 1566 1566 1566 1566 1566 1565 1566 1566 1565 1566 1566 1567 1568 1568 1567 1567 1567 1566 1566 1566 1566 1566 1566 1566 1566
1572 1572 1571 1572 1571 1570 1569 1569 1569 1568 1567 1565 1565 1565 1564 1564 1564 1565 1563 1563 1563 1563 1563 1563 1564 1565 1565 1565 1565 1566 1566 1566 1565 1565 1565 1564 1564 1564
1566 1566 1566 1566 1567 1568 1567 1566 1566 1567 1565 1565 1565 1564 1562 1561 1563 1562 1561 1560 1559 1560 1559 1559 1560 1561 1562 1562 1563 1563 1563 1564 1563 1563 1563 1562 1562 1562
1561 1560 1560 1562 1561 1561 1562 1562 1562 1562 1560 1561 1561 1561 1560 1559 1558 1559 1559 1557 1556 1557 1556 1557 1557 1557 1558 1559 1560 1561 1561 1561 1561 1561 1561 1560 1560 1561
1556 1555 1555 1555 1555 1556 1555 1556 1556 1556 1555 1556 1555 1556 1555 1553 1552 1554 1554 1553 1552 1552 1553 1553 1554 1555 1555 1556 1557 1558 1558 1559 1559 1559 1559 1559 1559 1560
1548 1548 1548 1549 1549 1548 1549 1549 1549 1549 1550 1550 1550 1549 1550 1550 1546 1547 1548 1548 1548 1548 1548 1548 1549 1550 1552 1553 1554 1555 1556 1556 1557 1557 1557 1557 1558 1559
1543 1542 1542 1541 1542 1542 1542 1542 1542 1542 1543 1543 1543 1542 1542 1542 1540 1541 1541 1542 1543 1544 1543 1543 1544 1545 1546 1549 1550 1551 1552 1553 1554 1555 1555 1556 1557 1558
1536 1536 1535 1535 1534 1533 1533 1533 1534 1533 1533 1534 1535 1535 1534 1535 1535 1535 1536 1536 1537 1538 1538 1539 1540 1541 1541 1543 1544 1547 1549 1550 1551 1552 1554 1555 1557 1558
1527 1527 1526 1527 1527 1526 1524 1523 1523 1525 1524 1527 1525 1525 1526 1529 1530 1528 1527 1529 1531 1531 1533 1534 1535 1536 1536 1538 1539 1542 1544 1547 1549 1550 1553 1555 1557 1558
1518 1517 1515 1514 1514 1514 1515 1514 1514 1513 1514 1515 1515 1516 1518 1522 1523 1522 1522 1523 1525 1525 1527 1529 1530 1530 1532 1533 1534 1537 1540 1544 1547 1550 1550 1552 1558 1558
1509 1506 1505 1503 1503 1503 1501 1501 1503 1504 1507 1506 1506 1508 1508 1511 1515 1516 1516 1516 1514 1515 1518 1520 1522 1524 1526 1527 1528 1533 1536 1540 1543 1542 1548 1551 1552 1557
1499 1496 1495 1494 1492 1492 1490 1490 1487 1490 1496 1499 1500 1499 1501 1503 1504 1507 1509 1509 1507 1511 1512 1515 1515 1518 1520 1518 1523 1525 1532 1534 1539 1540 1543 1547 1550 1554
1487 1486 1485 1485 1482 1480 1478 1477 1477 1480 1483 1486 1489 1492 1495 1496 1498 1500 1500 1501 1499 1504 1505 1509 1508 1512 1513 1514 1518 1524 1528 1534 1541 1542 1546 1545 1550 1553
1478 1475 1473 1472 1470 1469 1466 1465 1466 1467 1471 1477 1481 1484 1487 1490 1491 1492 1494 1496 1498 1498 1502 1503 1506 1508 1510 1509 1511 1516 1527 1532 1537 1543 1545 1545 1548 1551
1471 1468 1466 1464 1462 1460 1458 1457 1456 1458 1463 1469 1474 1478 1482 1483 1485 1486 1489 1492 1495 1497 1499 1499 1500 1501 1502 1500 1503 1513 1521 1529 1534 1539 1545 1546 1547 1549
1467 1464 1461 1459 1457 1454 1451 1450 1450 1451 1456 1463 1471 1472 1476 1478 1481 1483 1487 1490 1492 1494 1495 1496 1497 1497 1498 1500 1504 1514 1520 1527 1533 1539 1542 1545 1548 1550
1464 1461 1458 1456 1453 1450 1448 1445 1446 1449 1453 1458 1465 1469 1474 1476 1479 1481 1484 1486 1488 1489 1491 1492 1493 1495 1497 1500 1505 1511 1522 1529 1534 1539 1541 1546 1547 1548
1463 1459 1457 1455 1453 1451 1448 1446 1446 1448 1453 1458 1463 1467 1470 1473 1477 1480 1482 1484 1485 1488 1489 1491 1492 1495 1500 1506 1513 1517 1524 1529 1533 1537 1540 1545 1546 1545
1463 1459 1456 1455 1456 1454 1452 1450 1450 1451 1454 1459 1462 1466 1469 1473 1476 1478 1481 1483 1485 1488 1491 1494 1496 1500 1504 1509 1516 1521 1526 1529 1532 1536 1539 1541 1544 1543
1464 1460 1461 1458 1457 1458 1456 1453 1453 1455 1457 1460 1463 1467 1471 1475 1477 1479 1483 1486 1488 1492 1497 1502 1505 1509 1510 1513 1517 1522 1526 1530 1533 1535 1538 1540 1540 1540
1470 1466 1466 1463 1462 1462 1460 1458 1459 1459 1462 1465 1468 1471 1474 1477 1480 1483 1487 1491 1493 1497 1501 1505 1508 1510 1514 1517 1521 1523 1526 1527 1530 1533 1534 1537 1537 1537
1478 1475 1471 1469 1468 1467 1465 1464 1464 1466 1467 1470 1473 1477 1480 1484 1487 1490 1493 1496 1499 1502 1505 1508 1511 1514 1517 1519 1519 1522 1525 1526 1527 1529 1531 1532 1533 1535
1484 1481 1479 1478 1479 1475 1474 1473 1474 1473 1474 1478 1481 1484 1487 1490 1493 1496 1498 1499 1503 1505 1509 1511 1514 1516 1518 1519 1520 1522 1523 1524 1526 1527 1529 1531 1533 1533